This is the latest recevied weather packets stored in our database for station/object DL9GJ-6. If no packets are shown the sender has not sent any weather packets the latest 10 day(s).
| Time | Temp. | Humidity | Pressure | Rain* | Wind** | Luminosity | Snow |
|---|---|---|---|---|---|---|---|
| 1777812263 | 24.44° C | 35% | 1012.4 hPa | 0 mm | - | 487 W/m² | - |
| 1777811904 | 24.44° C | 34% | 1012.3 hPa | 0 mm | - | 623 W/m² | - |
| 1777811893 | 24.44° C | 34% | 1012.3 hPa | 0 mm | - | 623 W/m² | - |
| 1777811545 | 24.44° C | 36% | 1012.4 hPa | 0 mm | - | 650 W/m² | - |
| 1777811531 | 24.44° C | 36% | 1012.4 hPa | 0 mm | - | 650 W/m² | - |
| 1777811184 | 24.44° C | 34% | 1012.5 hPa | 0 mm | - | 593 W/m² | - |
| 1777811171 | 24.44° C | 34% | 1012.5 hPa | 0 mm | - | 593 W/m² | - |
| 1777810824 | 24.44° C | 35% | 1012.5 hPa | 0 mm | - | 627 W/m² | - |
| 1777810812 | 24.44° C | 35% | 1012.5 hPa | 0 mm | - | 627 W/m² | - |
| 1777810464 | 24.44° C | 34% | 1012.5 hPa | 0 mm | - | 508 W/m² | - |
| 1777810105 | 23.89° C | 38% | 1012.6 hPa | 0 mm | - | 582 W/m² | - |
| 1777809745 | 23.33° C | 35% | 1012.6 hPa | 0 mm | - | 576 W/m² | - |
| 1777809732 | 23.33° C | 35% | 1012.6 hPa | 0 mm | - | 576 W/m² | - |
| 1777809385 | 23.33° C | 34% | 1012.7 hPa | 0 mm | - | 651 W/m² | - |
| 1777809025 | 23.89° C | 35% | 1012.8 hPa | 0 mm | - | 631 W/m² | - |
| 1777808665 | 23.89° C | 34% | 1012.9 hPa | 0 mm | - | 561 W/m² | - |
| 1777808304 | 24.44° C | 34% | 1012.9 hPa | 0 mm | - | 669 W/m² | - |
| 1777807944 | 23.89° C | 33% | 1012.9 hPa | 0 mm | - | 731 W/m² | - |
| 1777807583 | 23.89° C | 36% | 1013 hPa | 0 mm | - | 795 W/m² | - |
| 1777807572 | 23.89° C | 36% | 1013 hPa | 0 mm | - | 795 W/m² | - |
| 1777807223 | 23.89° C | 33% | 1013 hPa | 0 mm | - | 800 W/m² | - |
| 1777807216 | 23.89° C | 33% | 1013 hPa | 0 mm | - | 800 W/m² | - |
| 1777806863 | 23.89° C | 34% | 1013 hPa | 0 mm | - | 713 W/m² | - |
| 1777806853 | 23.89° C | 34% | 1013 hPa | 0 mm | - | 713 W/m² | - |
| 1777806504 | 23.89° C | 35% | 1013.1 hPa | 0 mm | - | 824 W/m² | - |
* Rain latest hour (hover to see other rain measurements)
** Current wind speed in m/s (hover to see current wind gust speed)